Page, AZ

11:10 PM MST on January 16, 2017 (GMT -0700)
Page Municipal

Weather History for KPGA - August, 2013

Change the Weather History Date:

Tuesday, August 6, 2013

  Actual Average Record
Temperature  
Mean Temperature 80 °F -  
Max Temperature 88 °F 95 °F 104 °F (1969)
Min Temperature 73 °F 69 °F 61 °F (1962)
Cooling Degree Days 16    
Growing Degree Days 30 (Base 50)    
Moisture  
Dew Point 42 °F    
Average Humidity 24    
Maximum Humidity 46    
Minimum Humidity 13    
Precipitation  
Precipitation 0.00 in - - ()
Sea Level Pressure  
Sea Level Pressure 29.85 in    
Wind  
Wind Speed 5 mph (SW)    
Max Wind Speed 14 mph    
Max Gust Speed 22 mph    
Visibility 10 miles    
Events Rain    
Averages and records for this station are not official NWS values.
T = Trace of Precipitation, MM = Missing Value Source: NWS Daily Summary

Daily Weather History Graph

Daily Weather History Graph

Search for Another Location

Airport or City:

Trip Planner

Search our weather history database for the weather conditions in past years. The results will help you decide how hot, cold, wet, or windy it might be!

Date:

Astronomy

Aug. 06, 2013 Rise Set
Actual Time 5:35 AM MST 7:27 PM MST
Civil Twilight 5:07 AM MST 7:55 PM MST
Nautical Twilight 4:32 AM MST 8:29 PM MST
Astronomical Twilight 3:56 AM MST 9:05 PM MST
Moon 5:28 AM MST (8/6) 7:06 PM MST (8/6)
Length of Visible Light 14h 48m
Length of Day
13h 51m
Waning Crescent, 0% of the Moon is Illuminated
Aug 6
Waning Crescent
Aug 6
New
Aug 14
First Quarter
Aug 20
Full
Aug 28
Last Quarter

Hourly Weather History & Observations

Time (MST) Temp. Dew Point Humidity Pressure Visibility Wind Dir Wind Speed Gust Speed Precip Events Conditions
12:53 AM 84.0 °F 32.0 °F 15% 29.79 in 10.0 mi Calm Calm - N/A   Clear
1:53 AM 84.0 °F 33.1 °F 16% 29.79 in 10.0 mi West 3.5 mph - N/A   Clear
2:53 AM 82.0 °F 36.0 °F 19% 29.78 in 10.0 mi South 4.6 mph - N/A   Clear
3:53 AM 81.0 °F 37.0 °F 21% 29.79 in 10.0 mi SSW 4.6 mph - N/A   Clear
4:53 AM 80.1 °F 37.9 °F 22% 29.80 in 10.0 mi SSW 5.8 mph - N/A   Clear
5:53 AM 79.0 °F 41.0 °F 26% 29.82 in 10.0 mi SW 3.5 mph - N/A   Clear
6:53 AM 78.1 °F 45.0 °F 31% 29.85 in 10.0 mi Calm Calm - N/A   Clear
7:53 AM 82.0 °F 42.1 °F 24% 29.87 in 10.0 mi Calm Calm - N/A   Clear
8:53 AM 82.9 °F 44.1 °F 25% 29.87 in 10.0 mi Variable 6.9 mph - N/A   Clear
9:53 AM 84.0 °F 44.1 °F 25% 29.88 in 10.0 mi Variable 5.8 mph - N/A   Clear
10:53 AM 87.1 °F 43.0 °F 21% 29.87 in 10.0 mi SW 5.8 mph - N/A   Clear
11:53 AM 87.1 °F 42.1 °F 21% 29.87 in 10.0 mi WSW 5.8 mph - N/A   Mostly Cloudy
12:53 PM 86.0 °F 41.0 °F 20% 29.88 in 10.0 mi Variable 6.9 mph - 0.00 in   Overcast
1:53 PM 84.0 °F 44.1 °F 25% 29.88 in 10.0 mi SSW 10.4 mph 20.7 mph N/A   Mostly Cloudy
2:53 PM 84.0 °F 43.0 °F 24% 29.86 in 10.0 mi SSW 8.1 mph 18.4 mph N/A   Mostly Cloudy
3:53 PM 84.0 °F 41.0 °F 22% 29.85 in 10.0 mi WSW 6.9 mph - N/A   Overcast
4:53 PM 84.0 °F 42.1 °F 23% 29.83 in 10.0 mi NW 9.2 mph - N/A   Scattered Clouds
5:53 PM 84.0 °F 42.1 °F 23% 29.82 in 10.0 mi West 3.5 mph - N/A   Partly Cloudy
6:53 PM 82.0 °F 42.1 °F 24% 29.83 in 10.0 mi SW 5.8 mph - N/A   Overcast
7:53 PM 81.0 °F 44.1 °F 27% 29.85 in 10.0 mi South 6.9 mph - N/A   Overcast
8:53 PM 79.0 °F 46.0 °F 31% 29.87 in 10.0 mi South 13.8 mph 21.9 mph N/A   Overcast
9:53 PM 78.1 °F 46.0 °F 32% 29.87 in 10.0 mi SSW 11.5 mph 17.3 mph 0.00 in   Partly Cloudy
10:53 PM 73.9 °F 52.0 °F 46% 29.90 in 10.0 mi SSE 12.7 mph - 0.00 in Rain Light Rain
11:53 PM 75.0 °F 50.0 °F 41% 29.91 in 10.0 mi South 11.5 mph - 0.00 in   Overcast